AirNav   Everest Fuels
 
 1334 users online  

1MI6 Trudeau Airport
Milan, Michigan, USA

GOING TO MILAN?


FAA INFORMATION EFFECTIVE 11 AUGUST 2022

Location

FAA Identifier: 1MI6
Lat/Long: 42-05-16.5300N 083-45-55.8700W
42-05.275500N 083-45.931167W
42.0879250,-83.7655194
(estimated)
Elevation: 730 ft. / 223 m
From city: 4 miles W of MILAN, MI
Time zone: UTC -4 (UTC -5 during Standard Time)
Zip code: 48160

Airport Operations

Airport use: Private use. Permission required prior to landing
Activation date: 07/2011
Control tower: no
ARTCC: CLEVELAND CENTER
FSS: LANSING FLIGHT SERVICE STATION
Attendance: UNATNDD
Segmented circle: no

Airport Communications

WX ASOS at ARB (8 nm N): PHONE 734-668-7173
WX ASOS at YIP (14 nm NE): PHONE 734-961-6843
WX AWOS-3 at TTF (17 nm SE): 119.075 (734-384-0259)
WX ASOS at ADG (19 nm SW): 118.375 (517-265-9089)
WX ASOS at DTW (20 nm E): PHONE 734-955-5015

Nearby radio navigation aids

VOR radial/distance  VOR name  Freq  Var
CRLr283/13.9CARLETON VOR/DME115.7003W
DXOr253/19.3DETROIT VOR/DME113.4006W
SVMr205/20.7SALEM VORTAC114.3003W

 
NDB name  Hdg/Dist  Freq  Var  ID
TECUMSEH065/6.323906WTCU - -.-. ..-
ADRIAN053/19.127806WADG .- -.. --.
GROSSE ILE275/27.341907WRYS .-. -.-- ...

Airport Services

Runway Information

Runway 9/27

Dimensions: 1800 x 100 ft. / 549 x 30 m
Surface: turf
RUNWAY 9  RUNWAY 27
Traffic pattern: leftleft

Airport Ownership and Management from official FAA records

Ownership: Privately-owned
Owner: JOHN AND SUSAN TRUDEAU
13760 RIDGE RD
MILAN, MI 48160
Phone 734-347-4512
Manager: JOHN TRUDEAU
13760 RIDGE RD
MILAN, MI 48160
Phone 734-347-4512

Airport Operational Statistics

Aircraft based on the field: 1
Single engine airplanes: 1
    

Additional Remarks

FOR CD CTC DETROIT APCH AT 734-955-1404.

Instrument Procedures

There are no published instrument procedures at 1MI6.

Some nearby airports with instrument procedures:

KARB - Ann Arbor Municipal Airport (8 nm N)
KYIP - Willow Run Airport (14 nm NE)
KTTF - Custer Airport (17 nm SE)
KADG - Lenawee County Airport (19 nm SW)
KDTW - Detroit Metro Wayne County Airport (20 nm E)
 
Loc | Ops | Rwys | IFR | FBO | Links
Com | Nav | Svcs | Stats | Notes
Aerial photo
No photo
 
Airport distance calculator
Flying to Trudeau Airport? Find the distance to fly.

From to 1MI6

Sunrise and sunset
Times for 16-Aug-2022
 Local
(UTC-4)
 Zulu
(UTC)
Morning civil twilight06:1510:15
Sunrise06:4510:45
Sunset20:3400:34
Evening civil twilight21:0401:04

Current date and time
Zulu (UTC)  16-Aug-2022 23:50:22
Local (UTC-4)  16-Aug-2022 19:50:22
 
METAR
KARB 
8nm N 
734-668-7173
162330Z 00000KT 10SM VCTS FEW055 BKN080 OVC100 22/16 A3007 RMK AO2 LTG DSNT SW AND W RAE30 P0000 T02170156
KYIP 
14nm NE 
162253Z 09013KT 10SM CLR 27/13 A3006 RMK AO2 SLP173 T02670128
KTTF 
18nm SE 
162335Z AUTO 10004KT 10SM CLR 23/16 A3006 RMK AO2 T02260161
KADG 
19nm SW 
162253Z AUTO 12005KT 10SM FEW110 24/16 A3007 RMK AO2 SLP181 T02390161
TAF
KYIP 
14nm NE 
161720Z 1618/1718 04010G15KT P6SM SCT050 SCT100 FM170000 05006KT P6SM FEW100 SCT250 FM170600 02004KT P6SM FEW100 FM171600 05008KT P6SM SCT050 SCT100
NOTAMs
Click for the latest NOTAMs
NOTAMs are issued by the DoD/FAA and will open in a separate window not controlled by AirNav.

 

 
 

Would you like to see your business listed on this page?

 If your business provides an interesting product or service to pilots, flight crews, aircraft, or users of the Trudeau Airport, you should consider listing it here.  To start the listing process, click on the button below
 
Add a business
 

Other Pages about Trudeau Airport

Update a link
 
Copyright © AirNav, LLC. All rights reserved. Privacy Policy  Contact